ROMMA est une association bénévole à but non lucratif. Votre soutien est indispensable : ADHERER à ROMMA ou FAIRE un DON

Crempigny-Bonneguête - (74, Haute-Savoie)

Albanais-Montagne des Princes (500 m)   Longitude: 05° 54' 5" E   Latitude: 45° 57' 0" N Station partenaire n°10
 

Détail journalier du     <<     >>

Température Precipitation Humidité Pression Vent Dir Rafale Dir. rafale Ensol. 20 cm au dessus du sol
Heure (°C) (mm) (%) (hPa) (km/h) (km/h) (min) (°C)
01:00 15.40469992E5E013.3
02:00 15.10449994ONO8ONO013.9
03:00 14.20509992E6SE012.8
04:00 14.30489983NNE8NNE013.3
05:00 13.80509984NNE11NNE013.3
06:00 13.40529975NNE13NNE012.8
07:00 14.00509974N10NNE012.8
08:00 13.70609971NNO6N012.8
09:00 14.10679971NO5NNO013.9
10:00 15.10669971NO5NO1016.7
11:00 16.80529973S11SSO5518.9
12:00 18.20529975SE13SO4519.4
13:00 19.60499974ENE15E3021.1
14:00 20.30489964SSO13ENE6022.8
15:00 21.80449965SSE13NO5523.3
16:00 21.40419966SSO15SSO4522.8
17:00 20.40479967S19SO2020.0
18:00 18.905599611SO24SO518.3
19:00 18.405699611SO24SO517.8
20:00 17.80629973ENE10SO1516.7
21:00 16.70669981SE5SE015.0
22:00 16.30689996SO21SO015.0
23:00 15.30729993SO10S014.4
minuit 14.407710002NE10S013.3

Graphique du 23-04-2019

 

Serveur OMMA